Powrót do katalogu

FENGYUN 1C DEB

AktywnyPO
NORAD 31177·DEBRIS·🇨🇳 China

Wystrzelony May 10, 1999 z Taiyuan Satellite Launch Center

Loading…

Następne Przeloty (najbliższe 24 godziny)

TLE

ŚwieżeSource: Space-Track

Epoka: Sep 14, 2026, 15:22 UTC

1 31177U 99025BJF 26257.64054096  .00002475  00000-0  23098-2 0  9992
2 31177  98.7560 148.9645 0303755 311.7141  74.5257 13.64043025699714

Śledź FENGYUN 1C DEB w czasie rzeczywistym z AllMySat

Download on the App Store